Starlink 6107

operational
NORAD ID: 56117 Int'l Des: 2023-046 Owner: SPXS Country: US Constellation: starlink
LEOCIRCULAR

Über Starlink 6107

Beschreibung wird geladen...

Live-Position

3D-Globus wird geladen...

Nächste Überflüge

Höhenverlauf

Altitude vs Time

uPlot chart will show altitude changes over time

Zweizeiliger Elementsatz

1 56117U 23046AA 25307.74372726 -.00000398 00000-0 -14369-4 0 9999
2 56117 43.0029 110.5663 0001257 265.7356 94.3343 15.02533590143266
Epoch: 3. Nov. 2025 • Age: 12 hours

Aktueller Status

Höhe 570.9 km
Geschwindigkeit 7.58 km/s
Subsatellitenpunkt -41.40°S, 100.26°W
Startdatum 29. März 2023
Alter 2.6 years
Typ internet

Technische Details

Klassifizierung Payload
Masse 305.00 kg
Trockenmasse 290.00 kg
Gesamtmasse 305.00 kg
Länge 0.20 m
Durchmesser 2.80 m
Spannweite 9.00 m
Form Box + pan
Hersteller SPXS
Bus-Typ Starlink
Phasenstatus In Orbit
Besitzer/Staat SPXS/US

Große Konstellationen

Loading constellations...